Time,TemperatureF,DewpointF,PressureIn,WindDirection,WindDirectionDegrees,WindSpeedMPH,WindSpeedGustMPH,Humidity,HourlyPrecipIn,Conditions,Clouds,dailyrainin,SoftwareType,DateUTC
2013-02-18 00:01:00,39.0,27.0,-100.00,SE,140,10.0,17.0,62,0.00,,,-99.99,,2013-02-18 00:01:00,
2013-02-18 00:11:00,38.0,27.0,-100.00,SSE,150,8.0,15.0,63,0.00,,,-99.99,,2013-02-18 00:11:00,
2013-02-18 00:22:00,38.0,27.0,-100.00,SSE,150,9.0,17.0,63,0.00,,,-99.99,,2013-02-18 00:22:00,
2013-02-18 00:32:00,38.0,27.0,-100.00,SSE,150,9.0,12.0,64,0.00,,,-99.99,,2013-02-18 00:32:00,
2013-02-18 00:41:00,38.0,27.0,-100.00,SSE,150,9.0,12.0,64,0.00,,,-99.99,,2013-02-18 00:41:00,
2013-02-18 00:52:00,37.0,27.0,-100.00,SSE,150,7.0,16.0,66,0.00,,,-99.99,,2013-02-18 00:52:00,
2013-02-18 01:01:00,37.0,27.0,-100.00,SSE,150,7.0,16.0,66,0.00,,,-99.99,,2013-02-18 01:01:00,
2013-02-18 01:11:00,37.0,27.0,-100.00,South,170,9.0,15.0,65,0.00,,,-99.99,,2013-02-18 01:11:00,
2013-02-18 01:21:00,37.0,27.0,-100.00,SSE,160,7.0,15.0,65,0.00,,,-99.99,,2013-02-18 01:21:00,
2013-02-18 01:31:00,37.0,27.0,-100.00,SE,145,7.0,13.0,66,0.00,,,-99.99,,2013-02-18 01:31:00,
2013-02-18 01:41:00,37.0,27.0,-100.00,SE,145,7.0,13.0,66,0.00,,,-99.99,,2013-02-18 01:41:00,
2013-02-18 01:51:00,36.0,27.0,-100.00,SSE,155,8.0,15.0,67,0.00,,,-99.99,,2013-02-18 01:51:00,
2013-02-18 02:01:00,36.0,27.0,-100.00,SSE,155,8.0,15.0,67,0.00,,,-99.99,,2013-02-18 02:01:00,
2013-02-18 02:11:00,36.0,27.0,-100.00,SE,135,8.0,14.0,67,0.00,,,-99.99,,2013-02-18 02:11:00,
2013-02-18 02:21:00,36.0,27.0,-100.00,SSE,165,6.0,14.0,67,0.00,,,-99.99,,2013-02-18 02:21:00,
2013-02-18 02:32:00,36.0,26.0,-100.00,SSE,150,7.0,15.0,67,0.00,,,-99.99,,2013-02-18 02:32:00,
2013-02-18 02:41:00,36.0,26.0,-100.00,SSE,150,7.0,15.0,67,0.00,,,-99.99,,2013-02-18 02:41:00,
2013-02-18 02:52:00,36.0,26.0,-100.00,SSE,165,7.0,14.0,67,0.00,,,-99.99,,2013-02-18 02:52:00,
2013-02-18 03:01:00,36.0,26.0,-100.00,SSE,165,7.0,14.0,67,0.00,,,-99.99,,2013-02-18 03:01:00,
2013-02-18 03:11:00,36.0,26.0,-100.00,SSE,150,6.0,12.0,67,0.00,,,-99.99,,2013-02-18 03:11:00,
2013-02-18 03:21:00,36.0,26.0,-100.00,SSE,160,5.0,9.0,68,0.00,,,-99.99,,2013-02-18 03:21:00,
2013-02-18 03:31:00,35.0,27.0,-100.00,South,180,4.0,9.0,71,0.00,,,-99.99,,2013-02-18 03:31:00,
2013-02-18 03:42:00,35.0,27.0,-100.00,South,180,4.0,9.0,71,0.00,,,-99.99,,2013-02-18 03:42:00,
2013-02-18 03:51:00,35.0,26.0,-100.00,SSE,160,6.0,13.0,71,0.00,,,-99.99,,2013-02-18 03:51:00,
2013-02-18 04:01:00,35.0,26.0,-100.00,SSE,160,6.0,13.0,71,0.00,,,-99.99,,2013-02-18 04:01:00,
2013-02-18 04:11:00,35.0,26.0,-100.00,SSE,155,5.0,11.0,71,0.00,,,-99.99,,2013-02-18 04:11:00,
2013-02-18 04:21:00,35.0,26.0,-100.00,SSE,150,6.0,10.0,70,0.00,,,-99.99,,2013-02-18 04:21:00,
2013-02-18 04:32:00,34.0,26.0,-100.00,SE,140,2.0,9.0,72,0.00,,,-99.99,,2013-02-18 04:32:00,
2013-02-18 04:41:00,34.0,26.0,-100.00,SE,140,2.0,9.0,72,0.00,,,-99.99,,2013-02-18 04:41:00,
2013-02-18 04:51:00,35.0,26.0,-100.00,SSE,160,5.0,9.0,69,0.00,,,-99.99,,2013-02-18 04:51:00,
2013-02-18 05:02:00,35.0,26.0,-100.00,SSE,160,5.0,9.0,69,0.00,,,-99.99,,2013-02-18 05:02:00,
2013-02-18 05:11:00,34.0,26.0,-100.00,SE,145,4.0,8.0,70,0.00,,,-99.99,,2013-02-18 05:11:00,
2013-02-18 05:21:00,34.0,26.0,-100.00,SE,140,5.0,8.0,70,0.00,,,-99.99,,2013-02-18 05:21:00,
2013-02-18 05:31:00,34.0,26.0,-100.00,SSE,165,5.0,8.0,71,0.00,,,-99.99,,2013-02-18 05:31:00,
2013-02-18 05:41:00,34.0,26.0,-100.00,SSE,165,5.0,8.0,71,0.00,,,-99.99,,2013-02-18 05:41:00,
2013-02-18 05:52:00,34.0,26.0,-100.00,SE,145,5.0,8.0,71,0.00,,,-99.99,,2013-02-18 05:52:00,
2013-02-18 06:02:00,34.0,26.0,-100.00,SE,145,5.0,8.0,71,0.00,,,-99.99,,2013-02-18 06:02:00,
2013-02-18 06:11:00,34.0,26.0,-100.00,SSE,155,3.0,8.0,73,0.00,,,-99.99,,2013-02-18 06:11:00,
2013-02-18 06:21:00,34.0,26.0,-100.00,SE,145,4.0,10.0,73,0.00,,,-99.99,,2013-02-18 06:21:00,
2013-02-18 06:32:00,34.0,26.0,-100.00,SE,140,5.0,9.0,74,0.00,,,-99.99,,2013-02-18 06:32:00,
2013-02-18 06:41:00,34.0,26.0,-100.00,SE,140,5.0,9.0,74,0.00,,,-99.99,,2013-02-18 06:41:00,
2013-02-18 06:51:00,34.0,27.0,-100.00,SE,140,4.0,9.0,73,0.00,,,-99.99,,2013-02-18 06:51:00,
2013-02-18 07:01:00,34.0,27.0,-100.00,SE,140,4.0,9.0,73,0.00,,,-99.99,,2013-02-18 07:01:00,
2013-02-18 07:11:00,34.0,27.0,-100.00,SE,140,4.0,7.0,74,0.00,,,-99.99,,2013-02-18 07:11:00,
2013-02-18 07:21:00,34.0,27.0,-100.00,SSE,160,3.0,8.0,75,0.00,,,-99.99,,2013-02-18 07:21:00,
2013-02-18 07:32:00,34.0,27.0,-100.00,SSE,165,4.0,9.0,76,0.00,,,-99.99,,2013-02-18 07:32:00,
2013-02-18 07:42:00,34.0,27.0,-100.00,SSE,165,4.0,9.0,76,0.00,,,-99.99,,2013-02-18 07:42:00,
2013-02-18 07:51:00,34.0,27.0,-100.00,SSE,165,4.0,9.0,75,0.00,,,-99.99,,2013-02-18 07:51:00,
2013-02-18 08:01:00,34.0,27.0,-100.00,SSE,165,4.0,9.0,75,0.00,,,-99.99,,2013-02-18 08:01:00,
2013-02-18 08:11:00,34.0,28.0,-100.00,SSE,165,4.0,7.0,76,0.00,,,-99.99,,2013-02-18 08:11:00,
2013-02-18 08:21:00,34.0,28.0,-100.00,SSE,155,4.0,9.0,77,0.00,,,-99.99,,2013-02-18 08:21:00,
2013-02-18 08:32:00,33.0,28.0,-100.00,SE,135,3.0,6.0,79,0.00,,,-99.99,,2013-02-18 08:32:00,
2013-02-18 08:42:00,33.0,28.0,-100.00,SE,135,3.0,6.0,79,0.00,,,-99.99,,2013-02-18 08:42:00,
2013-02-18 08:52:00,33.0,28.0,-100.00,SE,140,4.0,6.0,81,0.00,,,-99.99,,2013-02-18 08:52:00,
2013-02-18 09:02:00,33.0,28.0,-100.00,SE,140,4.0,6.0,81,0.00,,,-99.99,,2013-02-18 09:02:00,
2013-02-18 09:11:00,33.0,28.0,-100.00,SE,135,4.0,6.0,82,0.00,,,-99.99,,2013-02-18 09:11:00,
2013-02-18 09:22:00,33.0,28.0,-100.00,SE,135,3.0,5.0,82,0.00,,,-99.99,,2013-02-18 09:22:00,
2013-02-18 09:32:00,33.0,28.0,-100.00,SE,140,3.0,5.0,83,0.00,,,-99.99,,2013-02-18 09:32:00,
2013-02-18 09:41:00,33.0,28.0,-100.00,SE,140,3.0,5.0,83,0.00,,,-99.99,,2013-02-18 09:41:00,
2013-02-18 09:51:00,32.0,28.0,-100.00,SE,125,2.0,4.0,83,0.00,,,-99.99,,2013-02-18 09:51:00,
2013-02-18 10:01:00,32.0,28.0,-100.00,SE,125,2.0,4.0,83,0.00,,,-99.99,,2013-02-18 10:01:00,
2013-02-18 10:11:00,32.0,28.0,-100.00,East,100,3.0,4.0,84,0.00,,,-99.99,,2013-02-18 10:11:00,
2013-02-18 10:21:00,33.0,28.0,-100.00,East,95,3.0,4.0,84,0.00,,,-99.99,,2013-02-18 10:21:00,
2013-02-18 10:31:00,31.0,29.0,-100.00,ENE,75,3.0,4.0,89,0.00,,,-99.99,,2013-02-18 10:31:00,
2013-02-18 10:42:00,31.0,29.0,-100.00,ENE,75,3.0,4.0,89,0.00,,,-99.99,,2013-02-18 10:42:00,
2013-02-18 10:52:00,31.0,28.0,-100.00,SE,145,1.0,4.0,88,0.00,,,-99.99,,2013-02-18 10:52:00,
2013-02-18 11:01:00,31.0,28.0,-100.00,SE,145,1.0,4.0,88,0.00,,,-99.99,,2013-02-18 11:01:00,
2013-02-18 11:11:00,31.0,29.0,-100.00,WNW,300,0.0,1.0,92,0.00,,,-99.99,,2013-02-18 11:11:00,
2013-02-18 11:22:00,31.0,29.0,-100.00,East,85,0.0,1.0,93,0.00,,,-99.99,,2013-02-18 11:22:00,
2013-02-18 11:32:00,30.0,29.0,-100.00,North,0,2.0,2.0,94,0.00,,,-99.99,,2013-02-18 11:32:00,
2013-02-18 11:42:00,30.0,29.0,-100.00,North,0,2.0,2.0,94,0.00,,,-99.99,,2013-02-18 11:42:00,
2013-02-18 11:52:00,30.0,29.0,-100.00,NE,40,2.0,4.0,96,0.00,,,-99.99,,2013-02-18 11:52:00,
2013-02-18 12:02:00,30.0,29.0,-100.00,NE,40,2.0,4.0,96,0.00,,,-99.99,,2013-02-18 12:02:00,
2013-02-18 12:11:00,31.0,30.0,-100.00,NNE,15,3.0,4.0,93,0.00,,,-99.99,,2013-02-18 12:11:00,
2013-02-18 12:22:00,31.0,29.0,-100.00,NNW,335,1.0,4.0,94,0.00,,,-99.99,,2013-02-18 12:22:00,
2013-02-18 12:32:00,29.0,27.0,-100.00,West,265,0.0,2.0,93,0.00,,,-99.99,,2013-02-18 12:32:00,
2013-02-18 12:42:00,29.0,27.0,-100.00,West,265,0.0,2.0,93,0.00,,,-99.99,,2013-02-18 12:42:00,
2013-02-18 12:52:00,27.0,27.0,-100.00,SSW,195,1.0,2.0,99,0.00,,,-99.99,,2013-02-18 12:52:00,
2013-02-18 13:02:00,27.0,27.0,-100.00,SSW,195,1.0,2.0,99,0.00,,,-99.99,,2013-02-18 13:02:00,
2013-02-18 13:12:00,29.0,29.0,-100.00,North,355,2.0,2.0,99,0.00,,,-99.99,,2013-02-18 13:12:00,
2013-02-18 13:22:00,30.0,30.0,-100.00,NNE,20,1.0,2.0,99,0.00,,,-99.99,,2013-02-18 13:22:00,
2013-02-18 13:32:00,27.0,27.0,-100.00,SSE,160,2.0,3.0,99,0.00,,,-99.99,,2013-02-18 13:32:00,
2013-02-18 13:42:00,27.0,27.0,-100.00,SSE,160,2.0,3.0,99,0.00,,,-99.99,,2013-02-18 13:42:00,
2013-02-18 13:52:00,29.0,29.0,-100.00,WSW,250,1.0,3.0,99,0.00,,,-99.99,,2013-02-18 13:52:00,
2013-02-18 14:02:00,29.0,29.0,-100.00,WSW,250,1.0,3.0,99,0.00,,,-99.99,,2013-02-18 14:02:00,
2013-02-18 14:11:00,30.0,30.0,-100.00,West,280,1.0,3.0,99,0.00,,,-99.99,,2013-02-18 14:11:00,
2013-02-18 14:22:00,32.0,32.0,-100.00,SSW,205,2.0,3.0,99,0.00,,,-99.99,,2013-02-18 14:22:00,
2013-02-18 14:33:00,33.0,32.0,-100.00,West,275,2.0,3.0,97,0.00,,,-99.99,,2013-02-18 14:33:00,
2013-02-18 14:41:00,33.0,32.0,-100.00,West,275,2.0,3.0,97,0.00,,,-99.99,,2013-02-18 14:41:00,
2013-02-18 14:53:00,33.0,32.0,-100.00,West,280,0.0,3.0,97,0.00,,,-99.99,,2013-02-18 14:53:00,
2013-02-18 15:02:00,34.0,32.0,-100.00,WSW,255,0.0,1.0,94,0.00,,,-99.99,,2013-02-18 15:02:00,
2013-02-18 15:11:00,34.0,32.0,-100.00,SE,125,1.0,1.0,93,0.00,,,-99.99,,2013-02-18 15:11:00,
2013-02-18 15:22:00,34.0,33.0,-100.00,SSE,165,2.0,3.0,94,0.00,,,-99.99,,2013-02-18 15:22:00,
2013-02-18 15:32:00,37.0,33.0,-100.00,NW,325,7.0,9.0,82,0.00,,,-99.99,,2013-02-18 15:32:00,
2013-02-18 15:42:00,37.0,33.0,-100.00,NW,325,7.0,9.0,82,0.00,,,-99.99,,2013-02-18 15:42:00,
2013-02-18 15:52:00,37.0,33.0,-100.00,NNW,330,5.0,10.0,83,0.00,,,-99.99,,2013-02-18 15:52:00,
2013-02-18 16:12:00,39.0,33.0,-100.00,NNW,330,4.0,9.0,80,0.00,,,-99.99,,2013-02-18 16:12:00,
2013-02-18 16:22:00,39.0,34.0,-100.00,NNW,330,4.0,10.0,80,0.00,,,-99.99,,2013-02-18 16:22:00,
2013-02-18 16:32:00,41.0,35.0,-100.00,North,0,9.0,14.0,78,0.00,,,-99.99,,2013-02-18 16:32:00,
2013-02-18 16:42:00,41.0,35.0,-100.00,North,0,9.0,14.0,78,0.00,,,-99.99,,2013-02-18 16:42:00,
2013-02-18 16:52:00,42.0,35.0,-100.00,North,350,15.0,19.0,75,0.00,,,-99.99,,2013-02-18 16:52:00,
2013-02-18 17:03:00,42.0,35.0,-100.00,North,350,15.0,19.0,75,0.00,,,-99.99,,2013-02-18 17:03:00,
2013-02-18 17:12:00,43.0,36.0,-100.00,North,350,15.0,21.0,75,0.00,,,-99.99,,2013-02-18 17:12:00,
2013-02-18 17:22:00,44.0,36.0,-100.00,North,0,14.0,21.0,73,0.00,,,-99.99,,2013-02-18 17:22:00,
2013-02-18 17:32:00,44.0,36.0,-100.00,NNW,330,12.0,22.0,72,0.00,,,-99.99,,2013-02-18 17:32:00,
2013-02-18 17:42:00,44.0,36.0,-100.00,NNW,330,12.0,22.0,72,0.00,,,-99.99,,2013-02-18 17:42:00,
2013-02-18 17:52:00,43.0,35.0,-100.00,NNW,330,17.0,21.0,74,0.00,,,-99.99,,2013-02-18 17:52:00,
2013-02-18 18:02:00,43.0,35.0,-100.00,NNW,330,17.0,21.0,74,0.00,,,-99.99,,2013-02-18 18:02:00,
2013-02-18 18:12:00,42.0,35.0,-100.00,NNW,345,15.0,22.0,77,0.00,,,-99.99,,2013-02-18 18:12:00,
2013-02-18 18:22:00,41.0,35.0,-100.00,NNW,330,14.0,22.0,77,0.00,,,-99.99,,2013-02-18 18:22:00,
2013-02-18 18:32:00,40.0,35.0,-100.00,North,350,17.0,29.0,81,0.00,,,-99.99,,2013-02-18 18:32:00,
2013-02-18 18:42:00,40.0,35.0,-100.00,North,350,17.0,29.0,81,0.00,,,-99.99,,2013-02-18 18:42:00,
2013-02-18 18:52:00,40.0,34.0,-100.00,North,0,10.0,29.0,81,0.00,,,-99.99,,2013-02-18 18:52:00,
2013-02-18 19:02:00,40.0,34.0,-100.00,North,0,10.0,29.0,81,0.00,,,-99.99,,2013-02-18 19:02:00,
2013-02-18 19:12:00,40.0,34.0,-100.00,North,350,16.0,24.0,80,0.00,,,-99.99,,2013-02-18 19:12:00,
2013-02-18 19:22:00,40.0,34.0,-100.00,North,350,16.0,22.0,80,0.00,,,-99.99,,2013-02-18 19:22:00,
2013-02-18 19:33:00,40.0,34.0,-100.00,NNW,335,16.0,21.0,81,0.00,,,-99.99,,2013-02-18 19:33:00,
2013-02-18 19:42:00,40.0,34.0,-100.00,NNW,335,16.0,21.0,81,0.00,,,-99.99,,2013-02-18 19:42:00,
2013-02-18 19:52:00,39.0,34.0,-100.00,North,350,12.0,21.0,81,0.00,,,-99.99,,2013-02-18 19:52:00,
2013-02-18 20:02:00,39.0,34.0,-100.00,North,350,12.0,21.0,81,0.00,,,-99.99,,2013-02-18 20:02:00,
2013-02-18 20:12:00,39.0,34.0,-100.00,NW,320,15.0,22.0,82,0.00,,,-99.99,,2013-02-18 20:12:00,
2013-02-18 20:22:00,38.0,33.0,-100.00,NNW,335,16.0,24.0,83,0.00,,,-99.99,,2013-02-18 20:22:00,
2013-02-18 20:33:00,35.0,32.0,-100.00,North,355,21.0,32.0,89,0.00,,,-99.99,,2013-02-18 20:33:00,
2013-02-18 20:42:00,35.0,32.0,-100.00,North,355,21.0,32.0,89,0.00,,,-99.99,,2013-02-18 20:42:00,
2013-02-18 20:52:00,33.0,31.0,-100.00,North,350,14.0,31.0,88,0.11,,,-99.99,,2013-02-18 20:52:00,
2013-02-18 21:03:00,33.0,31.0,-100.00,North,350,14.0,31.0,88,0.11,,,-99.99,,2013-02-18 21:03:00,
2013-02-18 21:12:00,32.0,31.0,-100.00,NNW,340,12.0,29.0,95,0.04,,,-99.99,,2013-02-18 21:12:00,
2013-02-18 21:22:00,31.0,31.0,-100.00,NNW,345,17.0,28.0,99,0.03,,,-99.99,,2013-02-18 21:22:00,
2013-02-18 21:32:00,30.0,30.0,-100.00,NNW,330,17.0,29.0,98,0.01,,,-99.99,,2013-02-18 21:32:00,
2013-02-18 21:42:00,30.0,30.0,-100.00,NNW,330,17.0,29.0,98,0.01,,,-99.99,,2013-02-18 21:42:00,
2013-02-18 21:52:00,30.0,29.0,-100.00,NNW,335,14.0,31.0,95,0.00,,,-99.99,,2013-02-18 21:52:00,
2013-02-18 22:02:00,30.0,29.0,-100.00,NNW,335,14.0,31.0,95,0.00,,,-99.99,,2013-02-18 22:02:00,
2013-02-18 22:12:00,30.0,26.0,-100.00,NW,320,21.0,29.0,83,0.00,,,-99.99,,2013-02-18 22:12:00,
2013-02-18 22:22:00,30.0,26.0,-100.00,NNW,330,12.0,30.0,84,0.00,,,-99.99,,2013-02-18 22:22:00,
2013-02-18 22:33:00,30.0,25.0,-100.00,NNW,330,17.0,31.0,80,0.00,,,-99.99,,2013-02-18 22:33:00,
2013-02-18 22:42:00,30.0,25.0,-100.00,NNW,330,17.0,31.0,80,0.00,,,-99.99,,2013-02-18 22:42:00,
2013-02-18 22:52:00,29.0,24.0,-100.00,North,0,19.0,32.0,78,0.00,,,-99.99,,2013-02-18 22:52:00,
2013-02-18 23:02:00,29.0,24.0,-100.00,North,0,19.0,32.0,78,0.00,,,-99.99,,2013-02-18 23:02:00,
2013-02-18 23:12:00,29.0,22.0,-100.00,NNW,330,19.0,29.0,76,0.00,,,-99.99,,2013-02-18 23:12:00,
2013-02-18 23:22:00,29.0,22.0,-100.00,NNW,335,21.0,37.0,75,0.00,,,-99.99,,2013-02-18 23:22:00,
2013-02-18 23:33:00,28.0,21.0,-100.00,NNW,335,17.0,30.0,74,0.00,,,-99.99,,2013-02-18 23:33:00,
2013-02-18 23:42:00,28.0,21.0,-100.00,NNW,335,17.0,30.0,74,0.00,,,-99.99,,2013-02-18 23:42:00,
2013-02-18 23:52:00,27.0,19.0,-100.00,NW,325,21.0,32.0,71,0.00,,,-99.99,,2013-02-18 23:52:00,